OPS 8314 (2)

导读 | 星芒AI

OPS 8314 (2) 是一颗美国国防部操作的军事通信卫星,属于轨道位置和任务尚未公开的机密项目。该卫星可能用于支持战术通信、情报收集或战略指挥系统。其发射时间和具体轨道参数未被官方披露,通常由美国太空部队进行监测和管理。由于其军事性质,OPS 8314 (2) 的功能和任务细节属于敏感信息,仅限授权人员了解。

基本信息
目录编号:
6822
目录名称:
OPS 8314 (2)
国际标识:
1972-079C
轨道中心:
EARTH
卫星名称:
OPS 8314 (2)
卫星全名:
--
卫星状态:
在轨 (已飞行19377 天)
发射日期:
1972-10-10 UTC
国别 :
美国 (US)
星等 :
--
轨道信息
数据来源 国际轨道数据
星历时间: 2025-10-28T20:41:23+0800
18小时前
查看轨道信息
半长轴: 7819.205km
偏心率: 0.0028524
轨道倾角: 95.639°
近地点辐角 282.072°
升交点赤经 275.710°
平近点角 203.695°
近地点: 1418.766km
远地点: 1463.374km
周期: 114.684分钟
每日圈数: 12.55622
详细信息
使用方式:
暂无
2D轨道图
3D轨道图
轨道高度分析图
轨道倾角分析图
轨道综合分析图
查看轨道综合分析图